GFSFLT2_con_mucape_096.txt.gz
CAPE
0 0 0 0 16 1 31 34 83 68 47 317 327 489 729 855 685 771 1059 741 488 710 900 1027 793 778 507 501 945 1487 1338 1439
0 0 0 0 0 45 3 93 48 119 102 44 573 647 619 935 907 822 1024 1069 731 739 893 632 336 296 279 797 953 1117 1063 1207
0 0 0 0 0 0 37 47 82 87 124 625 712 884 740 611 563 762 1048 1007 785 899 1079 1012 438 175 176 266 377 1085 1069 1198
0 0 0 0 0 0 0 43 38 85 325 480 791 923 778 416 366 312 388 412 435 802 869 820 847 321 129 173 200 411 1188 1079
18 0 0 0 0 0 4 12 68 87 154 599 738 830 663 616 543 419 371 323 321 372 570 810 501 234 211 358 665 796 454 591
83 5 11 0 0 0 0 7 24 74 288 728 763 703 444 391 468 600 558 497 438 332 347 473 655 809 712 551 477 405 158 80
55 14 3 5 0 0 0 3 46 79 81 527 881 862 605 677 686 627 551 484 430 371 320 314 375 1034 1005 758 653 735 312 119
76 44 23 100 120 37 6 0 18 47 74 157 804 828 654 563 527 455 384 347 304 282 306 292 349 454 437 711 521 750 325 246
106 43 104 90 58 62 83 99 138 57 406 361 539 490 499 455 388 320 226 167 145 170 279 467 306 382 546 447 251 228 196 118
113 90 90 90 13 22 55 60 90 158 197 313 405 425 438 444 421 325 252 177 135 174 253 481 561 525 327 268 502 337 192 96
164 170 94 12 0 0 5 57 55 197 243 378 429 270 354 299 207 165 132 113 139 143 277 311 433 452 406 352 489 411 226 132
5 121 127 37 0 0 0 49 45 163 252 247 235 604 431 95 94 64 33 13 4 96 172 166 196 276 302 335 247 194 346 246
87 23 10 0 0 0 38 63 15 182 283 252 358 172 113 115 109 27 12 0 0 14 30 170 210 202 152 85 243 108 196 125
22 25 1 0 0 6 18 0 13 149 263 237 85 29 46 113 70 22 31 10 12 14 30 47 21 76 142 168 89 120 211 221
2 58 43 26 1 0 0 0 0 69 155 204 88 53 32 53 47 48 52 63 64 78 36 41 20 8 15 6 9 10 26 41
21 13 13 24 0 0 0 0 0 5 146 176 129 67 45 29 62 66 77 105 88 6 0 0 0 0 0 0 0 0 0 0
11 1 54 42 23 0 0 0 0 1 75 158 173 119 92 62 45 40 4 0 0 0 0 0 0 0 0 0 0 0 0 0
0 0 0 0 0 10 0 0 0 0 3 52 131 159 133 122 77 34 44 7 0 2 4 1 0 0 0 0 0 0 0 0
0 0 0 12 0 0 0 0 0 0 2 25 12 55 149 226 130 44 39 81 92 83 48 0 0 0 0 0 0 0 0 0

GFSFLT2_con_mucape_102.txt.gz
CAPE
0 0 0 58 10 27 17 13 121 122 148 246 9 1 7 59 117 42 30 73 195 157 272 219 367 968 1180 2069 2018 2402 2043 2557
0 0 0 5 23 7 114 54 81 104 101 144 131 104 110 141 108 0 58 122 91 97 104 59 1 195 1212 2327 2014 2067 1515 2071
10 0 0 0 0 0 20 198 27 137 170 286 435 254 333 501 484 314 742 436 166 111 538 36 0 1032 1444 1667 1754 2024 1489 1061
12 1 0 0 1 2 23 33 32 37 224 185 227 599 611 1103 865 1584 936 565 186 100 16 835 911 1521 1051 743 847 1117 1015 1341
17 9 0 0 0 0 0 0 53 53 321 249 26 1181 1565 1769 1842 1523 2145 1424 908 1029 1447 1831 1572 1215 1109 656 577 456 750 672
34 73 38 1 0 0 0 1 0 1 457 908 1018 1479 1069 1268 1461 1129 1338 1373 1611 1550 1661 1435 1669 1283 837 700 408 340 224 318
22 1 17 6 0 0 1 0 29 141 610 479 702 1213 1047 736 733 840 850 865 970 917 993 1460 1645 1496 1406 1081 797 349 389 447
53 14 21 15 12 0 0 1 22 102 740 495 592 531 746 590 471 519 497 472 481 547 552 795 974 1386 1201 1062 948 931 925 677
300 231 125 49 122 94 11 0 14 818 671 199 4 56 1131 798 691 730 529 421 381 360 350 361 563 960 1474 1475 1365 1355 1392 1235
177 57 112 75 39 38 173 61 868 730 359 424 478 1196 1153 1037 832 616 528 379 340 352 278 308 307 300 590 1075 804 697 655 687
87 16 2 137 57 69 224 284 247 347 361 660 894 1099 1104 1006 875 527 465 313 222 175 210 285 294 341 431 551 662 481 468 366
140 146 91 98 12 0 24 43 106 39 455 606 685 803 1050 680 558 451 279 429 198 153 221 244 343 371 341 442 537 563 543 395
0 26 12 8 6 25 27 90 59 285 511 854 1074 1042 799 487 395 350 301 104 54 220 343 326 263 474 549 458 381 224 471 501
485 176 160 23 18 48 468 117 292 499 688 672 578 938 748 403 274 184 83 21 0 58 93 155 461 301 255 231 291 274 342 521
421 547 446 296 655 456 301 214 164 296 277 511 405 561 617 370 320 115 23 8 0 3 143 138 152 179 128 117 183 99 49 371
261 568 158 17 63 53 34 11 9 64 134 194 332 379 519 458 279 211 94 0 1 0 0 0 29 79 40 68 232 221 130 107
107 238 82 18 0 6 1 0 0 0 31 167 261 371 517 573 582 320 196 95 28 20 29 45 39 6 73 102 47 50 43 40
62 432 805 97 103 31 1 0 0 0 0 64 152 239 410 686 552 276 259 179 195 151 48 46 58 53 23 0 0 0 0 0
121 129 145 88 133 94 16 1 4 0 6 0 57 123 153 726 686 293 393 369 372 306 231 56 11 0 0 0 0 0 0 0

GFSFLT2_con_mucape_105.txt.gz
CAPE
0 0 0 24 58 96 52 0 23 32 2 82 197 107 25 20 28 36 42 73 91 130 84 343 521 914 1339 1285 1260 1383 955 1176
4 0 0 9 16 0 81 9 1 100 7 147 81 58 31 0 8 44 44 62 86 177 149 263 340 884 1249 1567 1505 1391 1130 1358
18 9 0 0 3 18 44 1 35 67 72 64 71 50 87 54 21 1 0 10 56 129 107 95 131 438 389 994 1169 1443 1368 1065
10 15 0 0 0 3 0 0 16 4 370 496 340 163 78 73 74 26 9 36 106 101 78 151 42 106 42 78 831 1039 1111 767
1 3 6 0 0 0 0 0 0 8 222 385 297 444 175 521 326 153 49 66 99 144 64 62 34 30 310 372 906 765 852 670
21 28 15 13 0 0 0 0 0 0 368 247 188 106 1165 1137 978 1102 468 173 167 129 108 45 116 580 598 675 693 566 549 274
44 45 14 4 3 14 0 0 0 490 496 236 319 627 871 501 628 718 555 583 341 249 351 123 300 639 604 527 359 226 175 159
115 109 105 57 81 89 41 0 792 1094 782 625 764 695 380 207 255 321 844 803 681 554 495 404 828 503 633 700 556 407 367 335
178 155 121 193 32 94 212 257 304 695 522 632 436 205 48 257 245 440 405 394 715 387 674 907 942 987 1020 726 658 598 595 622
94 150 237 63 51 93 236 384 479 257 74 37 2 0 0 449 616 612 429 356 288 311 356 613 847 1045 1121 1005 823 848 968 771
61 36 64 106 36 23 36 70 271 525 513 431 324 683 708 839 673 417 369 295 300 337 386 348 355 489 944 1285 1111 900 844 779
34 43 24 34 64 17 5 74 138 238 278 498 612 432 543 761 622 335 280 212 170 167 288 386 362 444 606 671 624 592 647 596
134 100 23 29 19 27 104 111 41 249 117 83 47 295 443 574 448 423 280 82 117 216 238 256 348 636 371 526 492 420 631 539
30 26 0 35 4 8 76 88 112 497 235 387 171 446 630 456 430 246 99 20 148 188 241 239 216 252 377 390 382 386 193 429
69 1 1 57 198 274 135 17 73 57 399 371 438 423 432 315 197 103 8 0 45 59 68 83 122 86 128 86 85 70 131 247
233 148 236 273 74 70 59 13 0 7 36 316 552 469 335 262 134 174 35 0 0 0 30 70 62 0 38 16 39 13 48 42
438 272 68 49 18 0 1 0 0 0 0 103 289 591 499 302 145 103 36 15 0 0 0 0 0 2 19 32 34 24 19 33
212 331 126 48 31 12 0 0 0 0 0 13 26 533 316 170 83 50 26 7 4 0 0 0 0 0 0 0 0 0 5 1
383 168 74 122 137 8 0 0 0 0 0 0 11 408 347 242 159 83 51 34 30 7 0 0 0 0 0 0 0 0 0 0

GFSFLT2_con_mucape_111.txt.gz
CAPE
883 797 599 454 236 78 62 47 11 9 52 8 1 0 38 43 24 28 22 56 96 117 121 94 74 180 202 169 108 247 245 344
8 537 554 430 280 195 131 61 33 6 0 1 0 34 104 83 50 7 16 94 57 106 149 137 141 146 196 189 141 168 424 441
4 45 206 259 157 70 52 57 72 7 0 15 0 2 112 92 46 8 57 62 86 33 165 180 242 256 321 268 223 309 573 513
21 36 9 123 49 71 22 0 13 25 5 76 1 0 41 77 37 11 34 82 104 160 257 241 257 316 451 494 544 563 563 651
53 76 115 50 39 0 0 0 0 3 3 57 10 2 47 88 106 64 45 67 119 179 236 243 259 326 511 567 538 641 654 529
36 68 111 72 104 11 0 0 0 0 0 17 87 152 22 77 68 63 73 64 61 150 214 276 288 287 289 97 86 281 436 402
21 90 97 133 168 84 17 3 0 0 0 1 210 404 183 110 85 34 39 83 104 142 156 153 93 73 44 76 131 168 324 184
77 43 35 71 123 136 86 157 210 346 269 517 794 730 634 485 296 80 46 43 65 106 104 108 114 140 78 146 210 227 160 213
104 21 12 0 14 74 179 369 254 369 169 861 910 931 809 854 676 397 190 171 160 164 132 135 126 228 369 270 210 228 205 130
35 32 0 1 3 64 113 225 322 392 827 477 544 533 545 621 513 442 341 361 201 188 221 214 225 143 104 98 163 176 281 187
1 2 18 27 0 2 25 55 205 343 338 728 666 599 718 508 361 320 383 450 528 254 244 258 194 94 85 117 48 111 257 308
9 0 5 0 10 26 38 50 203 446 650 678 498 324 396 250 119 35 9 38 95 153 352 357 280 188 131 175 45 61 37 144
1 0 0 0 23 45 35 42 240 457 504 419 327 305 175 150 101 23 0 0 46 318 156 332 395 447 461 481 416 300 295 339
0 0 0 0 0 0 30 225 202 365 383 295 174 167 111 28 3 1 6 23 167 296 258 447 467 457 456 346 323 332 343 404
3 0 35 39 42 155 295 233 179 186 211 148 55 123 69 13 9 0 44 83 48 113 156 347 382 276 249 203 322 392 347 399
10 17 153 118 67 187 358 227 452 236 36 0 79 163 31 27 0 0 0 6 18 23 3 65 93 59 67 161 169 194 158 234
43 109 59 99 80 70 126 265 380 404 384 451 359 375 137 14 6 0 0 0 0 0 0 1 1 3 19 25 17 25 27 47
26 135 50 7 0 0 4 87 238 391 614 680 614 389 121 48 5 0 0 0 0 0 0 0 0 0 0 0 0 0 0 0
56 167 28 0 0 0 0 0 0 144 446 558 626 427 234 141 95 25 2 0 0 0 0 0 0 0 0 0 0 0 0 0

GFSFLT2_con_mucape_114.txt.gz
CAPE
561 765 559 476 309 178 156 128 94 57 10 4 0 0 0 25 25 36 32 13 8 36 76 79 116 139 165 133 78 176 252 217
2 704 703 645 478 241 207 61 61 31 18 0 0 0 0 21 32 29 28 21 30 58 47 71 111 151 153 155 110 114 190 165
7 145 578 411 418 280 83 135 63 12 28 0 0 0 36 30 54 41 11 35 33 34 35 59 92 122 171 178 144 124 165 169
36 26 34 354 386 287 184 1 42 49 3 76 11 21 52 37 53 33 32 16 35 45 70 64 132 118 139 177 182 165 210 213
45 19 97 105 225 89 2 0 1 2 2 153 30 17 61 87 84 47 31 25 39 66 72 117 166 229 233 213 219 276 241 354
16 52 122 157 298 139 0 0 0 0 0 100 161 92 138 149 120 112 58 50 99 136 144 122 159 255 272 243 299 343 363 367
39 206 159 137 247 241 3 24 0 9 171 394 361 426 113 133 183 186 99 96 120 168 163 103 159 241 283 329 319 333 372 406
122 77 105 12 106 204 338 305 110 263 413 953 1117 660 511 208 164 199 154 119 117 89 155 179 236 234 212 121 74 145 286 320
3 41 29 8 7 138 199 246 728 342 335 1004 947 923 467 513 225 131 200 158 167 156 178 139 161 168 114 93 124 113 100 126
49 16 4 0 1 3 63 118 501 446 854 860 1074 870 706 590 368 250 206 143 153 158 181 164 172 255 207 131 90 88 98 108
7 16 1 104 55 1 10 90 382 584 642 1365 917 367 227 291 293 336 388 374 236 153 230 252 201 177 137 153 117 102 88 123
3 0 0 35 0 0 9 88 407 416 798 1092 372 210 326 146 131 82 63 113 219 289 220 263 235 135 57 108 146 71 138 181
1 0 0 0 50 8 12 54 512 691 853 754 352 264 273 135 40 50 40 132 215 223 335 226 281 332 144 134 81 68 40 10
0 0 0 0 11 45 64 240 598 697 719 407 306 319 208 78 32 37 96 145 141 218 213 148 220 380 351 220 172 251 211 93
0 0 11 8 32 55 391 390 348 581 547 262 311 140 80 22 49 80 55 38 60 76 136 142 167 165 304 332 368 216 118 95
0 13 100 143 408 503 578 296 251 304 210 216 139 46 8 0 18 31 20 23 17 6 19 143 59 75 98 165 306 246 233 206
2 70 62 85 67 232 344 458 459 316 93 92 130 46 5 0 0 0 0 0 0 0 10 1 4 8 7 10 5 0 0 11
7 29 23 53 100 256 330 429 431 323 483 356 357 95 21 0 0 0 0 0 0 0 0 0 0 0 0 0 0 0 0 0
1 72 44 20 57 140 262 365 656 575 616 659 467 206 72 10 0 0 0 0 0 0 0 0 0 0 0 0 0 0 0 0

GFSFLT2_con_mucape_117.txt.gz
CAPE
458 553 575 607 455 129 354 274 305 377 259 140 93 15 9 0 14 82 9 0 18 134 98 310 262 330 302 314 464 804 812 1025
26 613 530 712 425 440 492 141 100 284 285 281 220 106 20 33 60 81 56 10 35 117 124 216 302 413 431 441 507 605 813 960
0 154 267 497 534 432 418 447 194 158 81 176 199 186 142 52 81 66 75 17 35 47 58 150 315 386 572 673 701 622 773 905
7 0 7 291 446 435 423 171 410 352 40 382 143 139 244 227 141 86 82 16 39 48 44 124 252 370 507 686 717 741 752 1038
39 37 70 116 355 267 234 251 319 157 2 317 309 141 271 327 296 201 146 99 110 66 49 123 277 362 518 655 775 798 816 1000
23 92 129 426 396 507 131 32 134 47 16 32 509 592 295 311 266 211 172 202 327 180 40 79 493 548 512 663 427 876 886 989
20 181 228 201 286 572 383 392 0 12 374 701 713 729 668 349 291 270 242 253 320 457 366 158 157 538 845 430 411 853 965 1074
271 263 131 258 74 495 714 756 735 577 682 633 737 1096 684 420 360 344 363 330 350 351 247 143 133 244 276 601 374 512 1057 1217
218 202 125 85 72 54 530 673 713 782 745 654 783 830 721 565 454 473 378 386 394 299 130 96 51 76 105 193 274 365 613 659
352 277 65 57 116 194 280 350 687 847 643 819 905 653 577 527 386 338 244 228 240 273 172 117 165 166 115 95 140 124 64 94
336 273 66 217 164 110 101 189 462 840 766 960 874 605 466 572 434 317 283 226 202 177 191 175 164 442 308 297 228 222 107 178
114 126 38 156 98 47 23 217 328 1023 837 947 726 443 271 246 191 271 357 266 262 247 199 173 160 158 242 210 238 194 128 101
198 210 33 3 43 52 195 222 601 1095 824 1156 834 678 292 94 47 85 111 146 282 347 309 264 210 175 206 160 141 175 139 128
5 165 16 0 3 242 103 384 808 1123 791 638 262 179 98 63 102 166 148 132 177 234 232 264 291 298 313 225 182 207 137 89
174 134 0 0 11 15 49 752 716 954 608 253 211 119 52 76 118 103 64 129 179 169 222 351 264 346 344 293 272 215 142 81
52 84 56 39 54 187 480 613 815 852 667 449 243 133 136 107 100 62 39 14 29 25 44 11 137 126 211 290 303 264 202 134
107 95 207 243 286 424 460 747 550 562 602 509 285 156 75 75 50 2 0 0 4 4 6 15 13 15 14 26 13 33 104 92
4 450 535 487 135 356 978 1080 676 503 543 557 353 129 16 1 0 0 0 0 0 0 0 0 0 0 1 1 0 0 0 1
155 119 53 186 186 161 697 956 760 675 709 835 484 205 85 6 0 0 0 0 0 0 0 0 0 0 0 0 0 0 0 0

GFSFLT2_con_mucape_123.txt.gz
CAPE
0 0 0 12 7 4 45 43 53 212 172 168 48 79 161 160 252 98 213 277 232 219 244 867 871 867 1081 1171 1308 1176 1320 1537
0 0 0 3 96 41 31 49 89 104 97 291 122 3 81 220 299 341 302 567 416 221 258 452 673 1054 973 1143 1270 1139 973 1121
2 3 22 48 23 20 63 130 83 191 374 35 66 99 439 267 227 179 107 137 316 146 334 562 812 926 1182 1196 1274 1164 1008 1739
30 5 22 80 55 96 114 191 21 53 179 143 266 12 515 358 203 309 249 231 417 446 368 644 1038 1013 1160 1395 1188 1120 1410 2235
9 4 50 12 2 19 78 123 244 324 340 262 600 110 258 585 901 413 413 358 328 463 703 873 1295 1373 1097 1319 1503 1092 1604 1087
0 0 3 5 27 47 61 150 99 164 202 121 65 672 325 424 805 527 636 498 287 269 323 1378 1338 1970 1862 1559 1444 1467 1267 1179
0 0 0 0 31 1 62 192 130 69 80 260 0 487 973 810 864 818 517 451 297 240 119 466 971 1294 1306 2019 2119 1740 1651 1540
0 2 0 2 13 7 17 75 98 193 117 945 1449 1534 1574 1089 947 849 812 722 677 613 357 182 573 888 920 877 1954 2074 1907 1865
90 56 40 57 37 40 105 64 115 162 384 949 1380 1467 1082 1211 1263 794 859 745 654 1080 259 277 203 647 1018 1041 1122 1620 1705 1633
29 39 80 79 1 29 70 68 7 29 278 1315 1484 902 888 772 800 561 550 784 374 587 866 372 193 245 379 346 488 894 1434 1364
135 194 156 79 108 146 415 215 69 99 132 1698 1481 922 891 542 286 165 113 104 98 401 543 333 179 163 89 94 146 284 723 840
59 110 56 167 0 8 53 442 427 354 286 835 1521 1408 785 189 132 83 89 66 69 141 291 301 332 248 106 73 58 10 73 185
115 116 231 275 336 392 382 640 811 632 474 1713 1547 1080 421 187 101 117 122 89 167 201 163 287 310 321 336 234 166 134 165 153
230 237 296 346 353 217 905 764 586 1813 1883 1615 1246 941 490 351 241 143 104 115 183 207 178 165 198 330 287 174 197 163 134 135
267 302 600 571 325 642 646 974 1340 1932 1774 1554 1145 993 736 466 313 127 130 151 199 215 257 296 194 397 226 304 313 319 191 130
266 440 366 460 566 455 851 1450 1934 1918 1628 1251 1242 967 727 541 356 151 127 103 139 142 200 221 313 206 235 321 292 318 245 161
81 26 311 591 842 1166 1471 1509 1600 1701 1272 1153 1010 842 721 541 276 91 84 62 36 32 49 91 199 312 298 363 309 279 296 182
106 112 957 878 1162 1413 1539 1351 1222 1230 1120 1033 934 748 588 249 52 66 55 45 41 32 21 13 15 6 5 6 6 10 22 44
205 95 711 718 1059 1411 1391 1312 1063 1168 936 730 388 211 74 4 0 0 0 0 0 0 0 0 0 0 0 0 0 0 0 0